Location: Castelnau
(43.6639°N, 0.8431°W)
Time: 21:25:29
(UTC+00:00)

ARIANE 5 R/B - Pass Details

Date: 13 January 2026
Orbit: 746 x 793 km, 98.8° (Epoch: 11 February)

Event Time Altitude Azimuth Distance (km) Brightness Sun altitude
Rises 06:14:17 0° 20° (NNE) 3,270 5.8 -14.2°
Reaches altitude 10° 06:16:44 10° 27° (NNE) 2,330 5.1 -13.8°
Maximum altitude 06:21:36 43° 99° (E) 1,078 3.9 -13.0°
Drops below altitude 10° 06:26:22 10° 170° (S) 2,285 5.3 -12.1°
Sets 06:28:45 0° 177° (S) 3,199 6.0 -11.7°
